Overview Statistics Trail Chart Weather Telemetry Raw packets
 

This is the latest recevied weather packets stored in our database for station/object WD7OO. If no packets are shown the sender has not sent any weather packets the latest 10 day(s).

<< 13 14 15 16 17 18 19 >>
Time Temp. Humidity Pressure Rain* Wind** Luminosity Snow
1788535835 26.67° C 81% 1017.8 hPa 0 mm - 642 W/m² -
1788535530 26.67° C 80% 1017.6 hPa 0 mm - 551 W/m² -
1788535226 26.67° C 81% 1017.5 hPa 0 mm - 513 W/m² -
1788534920 26.11° C 83% 1017.5 hPa 0 mm - 389 W/m² -
1788534614 26.11° C 85% 1017.5 hPa 0 mm - 311 W/m² -
1788534309 25.56° C 85% 1017.4 hPa 0 mm - 437 W/m² -
1788534003 26.11° C 86% 1017.4 hPa 0 mm - 244 W/m² -
1788533698 26.11° C 88% 1017.4 hPa 0 mm - 366 W/m² -
1788533393 26.11° C 88% 1017.5 hPa 0 mm - 295 W/m² -
1788533089 26.11° C 88% 1017.1 hPa 0 mm - 248 W/m² -
1788532784 26.67° C 88% 1017.4 hPa 0 mm - 227 W/m² -
1788532481 26.67° C 88% 1017.2 hPa 0 mm - 168 W/m² -
1788532177 27.22° C 88% 1016.8 hPa 0 mm - 132 W/m² -
1788531873 27.22° C 88% 1016.6 hPa 0 mm - 218 W/m² -
1788531567 26.67° C 87% 1016.5 hPa 0 mm - 198 W/m² -
1788531262 26.67° C 87% 1016.3 hPa 0 mm - 190 W/m² -
1788530958 26.67° C 88% 1016.2 hPa 0 mm - 229 W/m² -
1788530653 26.11° C 91% 1016.6 hPa 0 mm - 336 W/m² -
1788530352 26.11° C 91% 1016.7 hPa 0 mm - 194 W/m² -
1788530051 26.11° C 90% 1016 hPa 0 mm - 185 W/m² -
1788529748 25.56° C 93% 1016.1 hPa 0 mm - 212 W/m² -
1788529448 25.56° C 93% 1015.8 hPa 0 mm - 200 W/m² -
1788529164 25.56° C 94% 1015.7 hPa 0 mm - 159 W/m² -
1788528838 25.56° C 93% 1015.9 hPa 0 mm - 140 W/m² -
1788528533 25° C 94% 1015.9 hPa 0 mm - 127 W/m² -

* Rain latest hour (hover to see other rain measurements)
** Current wind speed in m/s (hover to see current wind gust speed)